Theta_e
308 308 306 304 299 304 299 299 295 303 307 314 318 318 325 329 328 330 334 340 337 336 338 339 337 341 345 348 349 349 352 352
307 310 310 307 306 296 297 293 290 301 303 306 316 320 325 325 326 328 333 338 339 341 342 340 343 343 347 346 348 351 351 354
306 301 301 302 299 300 299 297 294 295 301 317 317 319 320 323 324 325 328 331 337 336 337 339 343 343 341 341 343 344 350 353
297 302 309 304 301 300 294 293 300 301 300 320 321 321 321 322 323 325 327 329 331 334 336 336 337 342 341 343 343 345 344 346
295 296 299 297 301 299 298 299 300 296 301 322 321 320 321 320 323 322 324 326 327 327 329 331 333 335 339 340 342 344 343 344
291 293 296 296 300 301 298 295 300 299 307 314 316 315 317 319 321 322 322 323 323 322 322 326 329 329 331 334 340 341 340 342
299 302 299 299 300 301 296 305 299 304 309 313 316 315 318 319 320 320 321 322 322 323 323 324 325 327 327 330 335 335 336 339
295 301 299 297 301 302 301 309 306 308 310 318 319 319 318 319 319 318 319 320 322 323 324 323 324 325 327 328 331 331 331 334
289 298 298 291 297 298 298 308 310 305 310 317 315 315 316 316 316 314 314 315 315 316 315 315 322 325 324 324 328 329 330 331
291 295 284 294 301 302 300 309 313 313 314 316 317 317 314 313 312 312 312 312 312 314 315 315 317 318 325 327 327 327 327 328
289 287 294 299 300 299 298 308 314 313 316 313 312 310 309 313 312 311 311 310 310 313 315 315 315 316 319 321 321 320 321 323
292 290 287 295 302 305 303 301 312 311 309 309 310 302 302 310 311 310 310 309 310 312 313 313 312 314 315 316 316 316 318 319
289 289 296 301 302 303 292 296 313 312 310 309 303 306 307 309 309 309 310 309 310 311 311 311 313 313 312 314 313 316 317 318
290 287 288 306 302 298 303 306 308 309 310 307 307 308 308 308 307 308 308 309 310 309 310 311 311 311 310 309 312 315 316 316
296 296 303 307 305 307 307 305 306 306 308 308 307 306 306 305 306 307 307 307 307 306 307 308 309 308 306 309 310 311 313 314
298 303 305 306 308 308 307 305 306 306 305 306 304 305 305 304 304 304 304 304 306 305 304 305 306 307 306 306 307 306 306 308
297 304 305 306 306 305 307 307 306 306 305 305 305 305 304 303 303 303 303 304 304 303 303 303 305 305 305 305 305 303 303 304
295 302 302 305 305 306 304 304 304 303 304 305 306 304 305 304 304 303 303 303 303 303 303 303 303 302 303 304 304 303 302 303
301 305 305 306 309 307 305 305 306 305 304 302 305 305 305 304 303 305 304 302 302 301 302 302 301 303 303 303 303 303 300 301
Wind_Speed
8 7 9 8 8 10 4 7 3 6 5 8 5 7 9 7 7 1 5 4 5 7 12 12 15 17 16 15 14 13 9 7
11 4 0 2 4 6 2 4 4 4 3 8 11 13 13 9 13 8 10 5 8 6 6 14 10 7 6 4 9 15 13 10
8 4 4 2 4 2 1 1 5 6 0 8 9 10 13 13 13 12 11 10 11 9 12 11 10 7 9 8 8 10 6 10
7 4 7 6 6 4 5 5 3 6 1 1 14 12 14 12 13 13 11 7 12 10 9 10 13 7 4 5 9 12 12 10
6 1 5 5 8 7 3 2 5 4 4 5 15 12 13 12 13 11 11 11 12 12 10 10 10 4 4 5 8 8 6 12
4 4 3 4 5 7 2 5 6 3 14 15 16 15 15 11 12 12 12 13 12 11 10 8 7 5 7 5 5 10 4 7
9 8 9 9 9 9 1 11 8 7 11 15 16 17 16 14 13 14 13 12 11 12 10 7 7 7 7 7 9 9 6 5
8 6 6 9 6 6 6 13 10 10 16 14 13 15 17 13 13 14 14 13 11 11 10 10 8 7 6 7 6 8 8 6
6 11 7 6 8 7 5 8 14 13 12 14 16 14 16 13 14 14 11 10 9 9 8 8 6 6 5 6 6 8 5 5
3 7 3 3 10 9 2 12 18 22 16 16 14 15 13 13 13 11 9 8 7 7 7 7 6 7 5 5 5 5 5 5
3 2 8 4 5 5 5 10 20 20 17 18 20 18 11 11 11 10 9 7 5 6 7 7 7 7 7 7 7 7 6 5
4 1 6 1 8 12 4 6 17 22 22 21 13 9 4 9 10 10 10 7 6 7 7 8 7 7 8 7 7 7 6 7
5 4 4 0 5 8 5 4 14 18 17 12 6 6 10 10 9 9 9 7 6 8 7 7 8 8 7 8 7 6 6 6
2 1 2 6 5 5 3 8 14 15 20 16 14 13 11 10 8 8 8 8 8 7 9 9 9 9 8 8 6 7 7 5
4 3 1 6 7 7 8 8 9 12 11 14 12 10 10 8 9 9 9 7 7 7 7 7 8 8 7 7 11 10 10 12
5 5 6 7 8 7 7 8 8 10 9 8 10 10 9 9 8 8 7 7 7 7 7 7 7 7 6 6 6 7 8 9
4 2 3 5 6 6 8 8 9 8 8 9 9 9 10 8 9 7 7 6 6 6 5 6 6 7 7 7 7 6 6 7
4 3 1 3 8 8 8 6 7 6 7 7 8 9 9 8 7 7 6 5 6 6 7 7 7 6 5 6 6 6 6 6
2 9 6 4 8 10 8 7 7 8 8 6 6 8 8 8 7 7 7 7 6 6 6 6 5 4 4 5 5 5 4 5
Wind_Direction
171 194 223 287 229 229 294 273 143 110 50 39 106 97 104 126 151 289 335 303 282 319 186 181 174 172 173 173 179 175 180 186
188 149 330 110 314 4 353 282 72 88 150 156 170 140 105 92 95 62 33 53 60 97 32 55 12 99 137 116 197 183 185 183
132 163 133 322 303 296 89 237 140 146 94 344 121 107 98 89 87 72 58 44 98 87 68 71 69 356 72 43 34 4 222 183
236 275 181 244 250 220 137 300 86 113 78 345 89 96 89 80 88 82 71 62 69 84 92 80 90 35 7 64 61 48 343 319
302 145 278 236 263 271 291 67 178 94 151 151 91 93 97 90 100 94 91 74 72 71 69 58 72 44 85 85 106 61 357 10
213 259 320 219 253 271 238 63 70 11 131 145 130 127 113 103 103 103 95 89 89 76 66 62 67 51 50 61 91 94 92 28
250 262 343 341 215 249 224 137 132 182 135 148 139 132 121 119 115 106 102 104 98 103 103 93 78 63 53 60 64 74 87 79
324 337 347 342 304 213 8 107 118 92 101 124 121 118 111 113 115 104 98 90 96 103 112 105 97 88 84 62 68 73 63 54
285 321 330 351 352 46 18 88 128 141 152 146 140 132 125 127 104 93 91 87 75 75 70 62 88 103 88 91 84 78 88 66
314 345 306 293 20 353 78 109 106 113 141 143 138 121 110 108 109 101 87 77 83 83 71 71 60 48 132 120 105 99 86 88
162 314 295 348 22 6 57 100 124 130 144 117 111 101 94 103 101 110 100 84 71 96 99 66 63 37 60 78 74 58 39 37
346 9 206 299 12 346 342 120 127 126 128 131 133 114 145 114 105 95 91 82 66 66 76 60 46 46 48 52 55 48 30 10
265 244 92 285 20 320 65 260 151 137 142 136 102 144 137 100 92 102 116 109 83 70 74 61 38 45 50 50 37 17 15 3
275 13 78 349 23 66 182 40 76 86 105 107 104 99 101 103 93 93 85 76 66 67 61 58 48 45 31 21 356 10 354 350
101 133 64 55 98 61 65 73 68 90 99 109 111 108 107 105 92 80 71 66 64 64 66 49 47 51 41 24 13 357 0 354
69 12 92 70 56 72 80 74 69 86 75 92 109 108 107 99 91 88 73 63 57 63 59 54 51 42 38 40 22 18 7 349
13 149 110 100 97 90 78 86 85 91 97 100 102 106 109 101 97 95 90 84 77 71 60 60 46 48 32 25 19 8 2 355
210 290 60 192 147 124 120 115 110 113 93 89 104 100 100 106 109 105 112 94 86 71 69 55 50 36 27 27 32 17 357 356
24 334 346 359 182 150 136 138 135 118 111 108 109 122 122 125 129 145 126 109 100 113 93 70 39 33 37 18 20 357 337 319